logo tempoitalia

Diretta Meteo Clarinda, Stati Uniti (USA)lunedì 31 agosto ore 01:35

Mappa
Sereno 24 °C Sereno 24 Ore: T.min 21 T.max 35
Ponente Sud Km/h 13 Punto di rugiada: 19 °C Umidità: 73% Visibilità: 10 Km
Il sole sorge alle: 06:46 Il sole tramonta alle: 19:54
31 Agosto 2026 01:35 tempo osservato: Sereno Sereno 24 73 1010 vento: Nord S 13
31 Agosto 2026 01:15 tempo osservato: Sereno Sereno 25 69 1010 vento: Nord S 13
31 Agosto 2026 00:55 tempo osservato: Sereno Sereno 25 69 1010 vento: Nord S 13
31 Agosto 2026 00:35 tempo osservato: Sereno Sereno 24 73 1010 vento: Nord S 11.1
31 Agosto 2026 00:15 tempo osservato: Sereno Sereno 24 78 1010 vento: Nord S 11.1
30 Agosto 2026 23:55 tempo osservato: Sereno Sereno 24 78 1010 vento: Nord S 11.1
30 Agosto 2026 23:35 tempo osservato: Sereno Sereno 23 88 1010 vento: Nord S 9.3
30 Agosto 2026 23:15 tempo osservato: Sereno Sereno 23 88 1010 vento: Nord S 9.3
30 Agosto 2026 22:55 tempo osservato: Sereno Sereno 24 88 1010 vento: Nord N 5.5
30 Agosto 2026 22:35 tempo osservato: Sereno Sereno 24 88 1010 vento: Nord S/SO 7.4
30 Agosto 2026 22:15 tempo osservato: Sereno Sereno 25 83 1010 vento: Nord S/SO 7.4
30 Agosto 2026 21:55 tempo osservato: Sereno Sereno 25 83 1010 vento: Nord S/SO 7.4
30 Agosto 2026 21:35 tempo osservato: Sereno Sereno 25 83 1010 vento: Nord N 5.5
30 Agosto 2026 21:15 tempo osservato: Sereno Sereno 26 78 1010 vento: Nord N 5.5
30 Agosto 2026 20:55 tempo osservato: Sereno Sereno 26 83 1009 vento: Nord S/SO 7.4
30 Agosto 2026 20:35 tempo osservato: Sereno Sereno 26 83 1009 vento: Nord S 9.3
30 Agosto 2026 20:15 tempo osservato: Sereno Sereno 27 78 1009 vento: Nord S 7.4
30 Agosto 2026 19:55 tempo osservato: Sereno Sereno 29 70 1009 vento: Nord S 7.4
30 Agosto 2026 19:35 tempo osservato: Sereno Sereno 30 66 1009 vento: Nord S 7.4
30 Agosto 2026 19:15 tempo osservato: Sereno Sereno 32 55 1009 vento: Nord S 11.1
30 Agosto 2026 18:55 tempo osservato: Sereno Sereno 32 59 1009 vento: Nord S 9.3
30 Agosto 2026 18:35 tempo osservato: Sereno Sereno 33 52 1009 vento: Nord S 14.8
30 Agosto 2026 18:15 tempo osservato: Sereno Sereno 34 49 1009 vento: Nord S 16.7
30 Agosto 2026 17:55 tempo osservato: Sereno Sereno 34 49 1009 vento: Nord S 18.5
30 Agosto 2026 17:35 tempo osservato: Sereno Sereno 35 47 1009 vento: Nord N 0
30 Agosto 2026 17:15 tempo osservato: Sereno Sereno 35 49 1009 vento: Nord S 16.7
30 Agosto 2026 16:55 tempo osservato: Sereno Sereno 35 49 1009 vento: Nord S 16.7
30 Agosto 2026 16:35 tempo osservato: Sereno Sereno 34 52 1009 vento: Nord S 11.1
30 Agosto 2026 16:15 tempo osservato: Sereno Sereno 34 52 1009 vento: Nord S 14.8
30 Agosto 2026 15:55 tempo osservato: Sereno Sereno 34 46 1009 vento: Nord SO 24
30 Agosto 2026 15:35 tempo osservato: Sereno Sereno 35 44 1009 vento: Nord S/SO 31.5
30 Agosto 2026 15:15 tempo osservato: Sereno Sereno 35 44 1009 vento: Nord S/SO 24
30 Agosto 2026 14:55 tempo osservato: Sereno Sereno 35 41 1009 vento: Nord S/SO 29.6
30 Agosto 2026 14:35 tempo osservato: Sereno Sereno 35 47 1010 vento: Nord S 25.9
30 Agosto 2026 14:15 tempo osservato: Sereno Sereno 35 44 1010 vento: Nord S/SO 25.9
30 Agosto 2026 13:55 tempo osservato: Sereno Sereno 34 46 1010 vento: Nord S/SO 25.9
30 Agosto 2026 13:35 tempo osservato: Sereno Sereno 34 49 1010 vento: Nord S 24
30 Agosto 2026 13:15 tempo osservato: Sereno Sereno 33 49 1011 vento: Nord S 22.2
30 Agosto 2026 12:55 tempo osservato: Sereno Sereno 34 43 1011 vento: Nord S/SO 22.2
30 Agosto 2026 12:35 tempo osservato: Sereno Sereno 32 55 1011 vento: Nord S/SO 16.7
30 Agosto 2026 12:15 tempo osservato: Sereno Sereno 31 55 1011 vento: Nord S 16.7
30 Agosto 2026 11:55 tempo osservato: Sereno Sereno 32 52 1011 vento: Nord S 18.5
30 Agosto 2026 11:35 tempo osservato: Sereno Sereno 31 52 1011 vento: Nord S 14.8
30 Agosto 2026 11:15 tempo osservato: Sereno Sereno 28 61 1011 vento: Nord S 13
30 Agosto 2026 10:55 tempo osservato: Sereno Sereno 29 58 1011 vento: Nord S/SO 14.8
30 Agosto 2026 10:35 tempo osservato: Sereno Sereno 29 58 1011 vento: Nord S 14.8
30 Agosto 2026 10:15 tempo osservato: Sereno Sereno 27 61 1011 vento: Nord S 11.1
30 Agosto 2026 09:55 tempo osservato: Sereno Sereno 26 65 1011 vento: Nord S/SE 13
30 Agosto 2026 09:35 tempo osservato: Sereno Sereno 25 69 1011 vento: Nord S/SE 9.3
30 Agosto 2026 09:15 tempo osservato: Sereno Sereno 25 69 1011 vento: Nord S 7.4
30 Agosto 2026 08:55 tempo osservato: Sereno Sereno 24 73 1011 vento: Nord S 9.3
30 Agosto 2026 08:35 tempo osservato: Sereno Sereno 23 78 1011 vento: Nord S/SE 7.4
30 Agosto 2026 08:15 tempo osservato: Sereno Sereno 22 83 1012 vento: Nord N 5.5
30 Agosto 2026 07:55 tempo osservato: Poco Nuvoloso Poco Nuvoloso 22 88 1012 vento: Nord N 0
30 Agosto 2026 07:35 tempo osservato: Poco Nuvoloso Poco Nuvoloso 22 83 1012 vento: Nord N 5.5
30 Agosto 2026 07:15 tempo osservato: Molto Nuvoloso Molto Nuvoloso 21 94 1011 vento: Nord SE 9.3
30 Agosto 2026 06:55 tempo osservato: Pioviggine Pioviggine 23 78 1012 vento: Nord N 0
30 Agosto 2026 06:35 tempo osservato: Coperto Coperto 24 69 1012 vento: Nord N 0
30 Agosto 2026 06:15 tempo osservato: Molto Nuvoloso Molto Nuvoloso 24 69 1011 vento: Nord S 13
30 Agosto 2026 05:55 tempo osservato: Sereno Sereno 24 69 1010 vento: Nord S 14.8
30 Agosto 2026 05:35 tempo osservato: Sereno Sereno 24 69 1011 vento: Nord S 14.8
30 Agosto 2026 05:15 tempo osservato: Sereno Sereno 25 65 1011 vento: Nord S 13
30 Agosto 2026 04:55 tempo osservato: Sereno Sereno 24 69 1011 vento: Nord S 13
30 Agosto 2026 04:35 tempo osservato: Sereno Sereno 24 69 1011 vento: Nord S 11.1
30 Agosto 2026 04:15 tempo osservato: Sereno Sereno 24 73 1011 vento: Nord S 11.1
30 Agosto 2026 03:55 tempo osservato: Sereno Sereno 24 73 1011 vento: Nord S 11.1
30 Agosto 2026 03:35 tempo osservato: Sereno Sereno 24 73 1011 vento: Nord S 9.3
30 Agosto 2026 03:15 tempo osservato: Sereno Sereno 23 78 1011 vento: Nord S 9.3
30 Agosto 2026 02:55 tempo osservato: Sereno Sereno 24 73 1011 vento: Nord S 9.3
30 Agosto 2026 02:35 tempo osservato: Sereno Sereno 23 78 1011 vento: Nord S 9.3
30 Agosto 2026 02:15 tempo osservato: Sereno Sereno 24 73 1011 vento: Nord S 9.3
30 Agosto 2026 01:55 tempo osservato: Sereno Sereno 24 73 1011 vento: Nord S 11.1
30 Agosto 2026 01:35 tempo osservato: Sereno Sereno 24 73 1011 vento: Nord S 9.3